Dream Diva — 3EKW6 — position and weather

sailwx.info

Track history (hours):
 
Tides and Currents Weather Stations Pressure Air Temp Water Temp Dewpoint Dewpoint Depression Visibility Wind Speed Wind Dir Waves Ship Positions

Dream Diva

Last reported at 2015-May-03 22:33 UTC. Time now 2015-May-03 22:57 UTC.
Position N 48°05' W 122°40'.

Length 186 m; draft 7.8 m.

Type: Cargo ship. MMSI: 372856000.

Date/timePositionNaut miles runAvg speedWind from/ knotsBaromVisibWave heightAir tempDewpointWater temp
2015-May-03 22:33N 48°05' W 122°40'1818.1
2015-May-03 21:33N 48°12' W 123°05'1413.9
2015-May-03 20:33N 48°11' W 123°26'1010.5
2015-May-03 19:34N 48°14' W 123°41'1211.6
2015-May-03 18:29N 48°15' W 123°60'4212.3
2015-May-03 15:07N 48°29' W 124°58'814.4
2015-May-03 14:33N 48°22' W 125°05'1615.6
2015-May-03 13:33N 48°08' W 125°14'1515.3
2015-May-03 12:34N 47°54' W 125°23'1514.2
2015-May-03 11:31N 47°39' W 125°19'1414.5
2015-May-03 10:34N 47°26' W 125°14'1514.6
2015-May-03 09:33N 47°12' W 125°07'1514.5
2015-May-03 08:34N 46°58' W 124°60'1414.2
2015-May-03 07:34N 46°47' W 124°48'1414.0
2015-May-03 06:33N 46°35' W 124°36'1413.9
2015-May-03 05:33N 46°24' W 124°25'1414.0
2015-May-03 04:34N 46°13' W 124°11'1212.0
2015-May-03 03:34N 46°11' W 123°54'1110.9
2015-May-03 02:33N 46°15' W 123°40'1110.5
2015-May-03 01:34N 46°11' W 123°26'1212.3
2015-May-03 00:33N 46°11' W 123°08'1212.4
2015-May-02 23:33N 46°04' W 122°53'1212.3
2015-May-02 22:34N 45°53' W 122°48'1212.1
2015-May-02 21:33N 45°41' W 122°46'2 1.7
2015-May-02 20:29N 45°39' W 122°45'0 0.0
2015-May-02 19:29N 45°39' W 122°45'0 0.0
2015-May-02 18:29N 45°39' W 122°45'0 0.0
2015-May-02 17:32N 45°39' W 122°45'0 0.0
2015-May-02 16:32N 45°39' W 122°45'0 0.0
2015-May-02 15:26N 45°39' W 122°45'0 0.0
2015-May-02 14:32N 45°39' W 122°45'0 0.0
2015-May-02 13:29N 45°39' W 122°45'0 0.0
2015-May-02 12:32N 45°39' W 122°45'0 0.0
2015-May-02 11:20N 45°39' W 122°45'0 0.0
2015-May-02 10:32N 45°39' W 122°45'0 0.0
2015-May-02 09:29N 45°39' W 122°45'0 0.0
2015-May-02 08:32N 45°39' W 122°45'0 0.1
2015-May-02 07:33N 45°39' W 122°45'9 9.4
2015-May-02 06:33N 45°48' W 122°47'1212.5
2015-May-02 05:33N 46°00' W 122°51'1111.2
2015-May-02 04:33N 46°09' W 123°02'1212.1
2015-May-02 03:33N 46°08' W 123°19'1010.2
2015-May-02 02:34N 46°16' W 123°29'1312.8
2015-May-02 01:33N 46°13' W 123°47'8 7.6
2015-May-02 00:33N 46°13' W 123°58'1212.0
2015-May-01 23:33N 46°12' W 124°15'1212.2
2015-May-01 22:34N 46°14' W 124°32'1616.1
2015-May-01 21:34N 46°16' W 124°55'1615.9
2015-May-01 20:34N 46°19' W 125°18'3415.9
2015-May-01 18:26N 46°24' W 126°06'  
Track history (hours):
 
Tides and Currents Weather Stations Pressure Air Temp Water Temp Dewpoint Dewpoint Depression Visibility Wind Speed Wind Dir Waves Ship Positions

Dream Diva

Last reported at 2015-May-03 22:33 UTC. Time now 2015-May-03 22:57 UTC.
Position N 48°05' W 122°40'.

Length 186 m; draft 7.8 m.

Type: Cargo ship. MMSI: 372856000.

Date/timePositionNaut miles runAvg speedWind from/ knotsBaromVisibWave heightAir tempDewpointWater temp
2015-May-03 22:33N 48°05' W 122°40'1818.1
2015-May-03 21:33N 48°12' W 123°05'1413.9
2015-May-03 20:33N 48°11' W 123°26'1010.5
2015-May-03 19:34N 48°14' W 123°41'1211.6
2015-May-03 18:29N 48°15' W 123°60'4212.3
2015-May-03 15:07N 48°29' W 124°58'814.4
2015-May-03 14:33N 48°22' W 125°05'1615.6
2015-May-03 13:33N 48°08' W 125°14'1515.3
2015-May-03 12:34N 47°54' W 125°23'1514.2
2015-May-03 11:31N 47°39' W 125°19'1414.5
2015-May-03 10:34N 47°26' W 125°14'1514.6
2015-May-03 09:33N 47°12' W 125°07'1514.5
2015-May-03 08:34N 46°58' W 124°60'1414.2
2015-May-03 07:34N 46°47' W 124°48'1414.0
2015-May-03 06:33N 46°35' W 124°36'1413.9
2015-May-03 05:33N 46°24' W 124°25'1414.0
2015-May-03 04:34N 46°13' W 124°11'1212.0
2015-May-03 03:34N 46°11' W 123°54'1110.9
2015-May-03 02:33N 46°15' W 123°40'1110.5
2015-May-03 01:34N 46°11' W 123°26'1212.3
2015-May-03 00:33N 46°11' W 123°08'1212.4
2015-May-02 23:33N 46°04' W 122°53'1212.3
2015-May-02 22:34N 45°53' W 122°48'1212.1
2015-May-02 21:33N 45°41' W 122°46'2 1.7
2015-May-02 20:29N 45°39' W 122°45'0 0.0
2015-May-02 19:29N 45°39' W 122°45'0 0.0
2015-May-02 18:29N 45°39' W 122°45'0 0.0
2015-May-02 17:32N 45°39' W 122°45'0 0.0
2015-May-02 16:32N 45°39' W 122°45'0 0.0
2015-May-02 15:26N 45°39' W 122°45'0 0.0
2015-May-02 14:32N 45°39' W 122°45'0 0.0
2015-May-02 13:29N 45°39' W 122°45'0 0.0
2015-May-02 12:32N 45°39' W 122°45'0 0.0
2015-May-02 11:20N 45°39' W 122°45'0 0.0
2015-May-02 10:32N 45°39' W 122°45'0 0.0
2015-May-02 09:29N 45°39' W 122°45'0 0.0
2015-May-02 08:32N 45°39' W 122°45'0 0.1
2015-May-02 07:33N 45°39' W 122°45'9 9.4
2015-May-02 06:33N 45°48' W 122°47'1212.5
2015-May-02 05:33N 46°00' W 122°51'1111.2
2015-May-02 04:33N 46°09' W 123°02'1212.1
2015-May-02 03:33N 46°08' W 123°19'1010.2
2015-May-02 02:34N 46°16' W 123°29'1312.8
2015-May-02 01:33N 46°13' W 123°47'8 7.6
2015-May-02 00:33N 46°13' W 123°58'1212.0
2015-May-01 23:33N 46°12' W 124°15'1212.2
2015-May-01 22:34N 46°14' W 124°32'1616.1
2015-May-01 21:34N 46°16' W 124°55'1615.9
2015-May-01 20:34N 46°19' W 125°18'3415.9
2015-May-01 18:26N 46°24' W 126°06'  

Dump ship's entire track history